owner,sensor,date,latitude,longitude,vertical_datum,sea_water_temperature,qcFlag 
DISL,ioos:station:DISL:PPTA:1,2015-01-01T06:30:00Z,30.2791,-87.5561,0.0,16.07,2 
DISL,ioos:station:DISL:PPTA:1,2015-01-01T07:00:00Z,30.2791,-87.5561,0.0,15.73,2 
DISL,ioos:station:DISL:PPTA:1,2015-01-01T07:30:00Z,30.2791,-87.5561,0.0,15.12,2 
DISL,ioos:station:DISL:PPTA:1,2015-01-01T08:00:00Z,30.2791,-87.5561,0.0,15.35,2 
DISL,ioos:station:DISL:PPTA:1,2015-01-01T08:30:00Z,30.2791,-87.5561,0.0,15.77,2 
DISL,ioos:station:DISL:PPTA:1,2015-01-01T09:00:00Z,30.2791,-87.5561,0.0,15.55,2 
DISL,ioos:station:DISL:PPTA:1,2015-01-01T09:30:00Z,30.2791,-87.5561,0.0,14.9,2 
DISL,ioos:station:DISL:PPTA:1,2015-01-01T10:00:00Z,30.2791,-87.5561,0.0,14.25,2 
DISL,ioos:station:DISL:PPTA:1,2015-01-01T10:30:00Z,30.2791,-87.5561,0.0,15.01,2 
DISL,ioos:station:DISL:PPTA:1,2015-01-01T11:00:00Z,30.2791,-87.5561,0.0,14.83,2 
DISL,ioos:station:DISL:PPTA:1,2015-01-01T11:30:00Z,30.2791,-87.5561,0.0,14.79,2 
DISL,ioos:station:DISL:PPTA:1,2015-01-01T12:00:00Z,30.2791,-87.5561,0.0,14.7,2 
DISL,ioos:station:DISL:PPTA:1,2015-01-01T12:30:00Z,30.2791,-87.5561,0.0,14.49,2 
DISL,ioos:station:DISL:PPTA:1,2015-01-01T13:00:00Z,30.2791,-87.5561,0.0,14.56,2 
DISL,ioos:station:DISL:PPTA:1,2015-01-01T13:30:00Z,30.2791,-87.5561,0.0,14.48,2 
DISL,ioos:station:DISL:PPTA:1,2015-01-01T14:00:00Z,30.2791,-87.5561,0.0,14.23,2 
DISL,ioos:station:DISL:PPTA:1,2015-01-01T14:30:00Z,30.2791,-87.5561,0.0,14.2,2 
DISL,ioos:station:DISL:PPTA:1,2015-01-01T15:00:00Z,30.2791,-87.5561,0.0,14.21,2 
DISL,ioos:station:DISL:PPTA:1,2015-01-01T15:30:00Z,30.2791,-87.5561,0.0,14.39,2 
DISL,ioos:station:DISL:PPTA:1,2015-01-01T16:00:00Z,30.2791,-87.5561,0.0,14.37,2 
DISL,ioos:station:DISL:PPTA:1,2015-01-01T16:30:00Z,30.2791,-87.5561,0.0,14.98,2 
DISL,ioos:station:DISL:PPTA:1,2015-01-01T17:00:00Z,30.2791,-87.5561,0.0,15.59,2 
DISL,ioos:station:DISL:PPTA:1,2015-01-01T17:30:00Z,30.2791,-87.5561,0.0,15.6,2 
DISL,ioos:station:DISL:PPTA:1,2015-01-01T18:00:00Z,30.2791,-87.5561,0.0,15.72,2 
DISL,ioos:station:DISL:PPTA:1,2015-01-01T18:30:00Z,30.2791,-87.5561,0.0,15.85,2 
DISL,ioos:station:DISL:PPTA:1,2015-01-01T19:00:00Z,30.2791,-87.5561,0.0,15.88,2 
DISL,ioos:station:DISL:PPTA:1,2015-01-01T19:30:00Z,30.2791,-87.5561,0.0,15.92,2 
DISL,ioos:station:DISL:PPTA:1,2015-01-01T20:00:00Z,30.2791,-87.5561,0.0,15.98,2 
DISL,ioos:station:DISL:PPTA:1,2015-01-01T20:30:00Z,30.2791,-87.5561,0.0,15.99,2 
DISL,ioos:station:DISL:PPTA:1,2015-01-01T21:00:00Z,30.2791,-87.5561,0.0,16.02,2 
DISL,ioos:station:DISL:PPTA:1,2015-01-01T21:30:00Z,30.2791,-87.5561,0.0,16.01,2 
DISL,ioos:station:DISL:PPTA:1,2015-01-01T22:00:00Z,30.2791,-87.5561,0.0,16.03,2 
DISL,ioos:station:DISL:PPTA:1,2015-01-01T22:30:00Z,30.2791,-87.5561,0.0,16.06,2 
DISL,ioos:station:DISL:PPTA:1,2015-01-01T23:00:00Z,30.2791,-87.5561,0.0,16.04,2 
DISL,ioos:station:DISL:PPTA:1,2015-01-01T23:30:00Z,30.2791,-87.5561,0.0,16.07,2 
DISL,ioos:station:DISL:PPTA:1,2015-01-02T00:00:00Z,30.2791,-87.5561,0.0,16.04,2 
DISL,ioos:station:DISL:PPTA:1,2015-01-02T00:30:00Z,30.2791,-87.5561,0.0,16.02,2 
DISL,ioos:station:DISL:PPTA:1,2015-01-02T01:00:00Z,30.2791,-87.5561,0.0,16.07,2 
DISL,ioos:station:DISL:PPTA:1,2015-01-02T01:30:00Z,30.2791,-87.5561,0.0,16.04,2 
DISL,ioos:station:DISL:PPTA:1,2015-01-02T02:00:00Z,30.2791,-87.5561,0.0,16.01,2 
DISL,ioos:station:DISL:PPTA:1,2015-01-02T02:30:00Z,30.2791,-87.5561,0.0,16.02,2 
DISL,ioos:station:DISL:PPTA:1,2015-01-02T03:00:00Z,30.2791,-87.5561,0.0,15.9,2 
DISL,ioos:station:DISL:PPTA:1,2015-01-02T03:30:00Z,30.2791,-87.5561,0.0,16.01,2 
DISL,ioos:station:DISL:PPTA:1,2015-01-02T04:00:00Z,30.2791,-87.5561,0.0,15.82,2 
DISL,ioos:station:DISL:PPTA:1,2015-01-02T04:30:00Z,30.2791,-87.5561,0.0,15.26,2 
DISL,ioos:station:DISL:PPTA:1,2015-01-02T05:00:00Z,30.2791,-87.5561,0.0,15.58,2 
DISL,ioos:station:DISL:PPTA:1,2015-01-02T05:30:00Z,30.2791,-87.5561,0.0,15.55,2 
DISL,ioos:station:DISL:PPTA:1,2015-01-02T06:00:00Z,30.2791,-87.5561,0.0,15.59,2 
DISL,ioos:station:DISL:PPTA:1,2015-01-02T06:30:00Z,30.2791,-87.5561,0.0,15.61,2 
DISL,ioos:station:DISL:PPTA:1,2015-01-02T07:00:00Z,30.2791,-87.5561,0.0,15.22,2 
DISL,ioos:station:DISL:PPTA:1,2015-01-02T07:30:00Z,30.2791,-87.5561,0.0,15.28,2 
DISL,ioos:station:DISL:PPTA:1,2015-01-02T08:00:00Z,30.2791,-87.5561,0.0,15.04,2 
DISL,ioos:station:DISL:PPTA:1,2015-01-02T08:30:00Z,30.2791,-87.5561,0.0,15.04,2 
DISL,ioos:station:DISL:PPTA:1,2015-01-02T09:00:00Z,30.2791,-87.5561,0.0,14.98,2 
DISL,ioos:station:DISL:PPTA:1,2015-01-02T09:30:00Z,30.2791,-87.5561,0.0,15.06,2 
DISL,ioos:station:DISL:PPTA:1,2015-01-02T10:00:00Z,30.2791,-87.5561,0.0,14.94,2 
DISL,ioos:station:DISL:PPTA:1,2015-01-02T10:30:00Z,30.2791,-87.5561,0.0,14.91,2 
DISL,ioos:station:DISL:PPTA:1,2015-01-02T11:00:00Z,30.2791,-87.5561,0.0,14.86,2 
DISL,ioos:station:DISL:PPTA:1,2015-01-02T11:30:00Z,30.2791,-87.5561,0.0,14.74,2 
DISL,ioos:station:DISL:PPTA:1,2015-01-02T12:00:00Z,30.2791,-87.5561,0.0,14.62,2 
DISL,ioos:station:DISL:PPTA:1,2015-01-02T12:30:00Z,30.2791,-87.5561,0.0,14.6,2 
DISL,ioos:station:DISL:PPTA:1,2015-01-02T13:00:00Z,30.2791,-87.5561,0.0,14.43,2 
DISL,ioos:station:DISL:PPTA:1,2015-01-02T13:30:00Z,30.2791,-87.5561,0.0,14.46,2 
DISL,ioos:station:DISL:PPTA:1,2015-01-02T14:00:00Z,30.2791,-87.5561,0.0,14.39,2 
DISL,ioos:station:DISL:PPTA:1,2015-01-02T14:30:00Z,30.2791,-87.5561,0.0,14.34,2 
DISL,ioos:station:DISL:PPTA:1,2015-01-02T15:00:00Z,30.2791,-87.5561,0.0,14.43,2 
DISL,ioos:station:DISL:PPTA:1,2015-01-02T15:30:00Z,30.2791,-87.5561,0.0,14.79,2 
DISL,ioos:station:DISL:PPTA:1,2015-01-02T16:00:00Z,30.2791,-87.5561,0.0,14.63,2 
DISL,ioos:station:DISL:PPTA:1,2015-01-02T16:30:00Z,30.2791,-87.5561,0.0,15.14,2 
DISL,ioos:station:DISL:PPTA:1,2015-01-02T17:00:00Z,30.2791,-87.5561,0.0,14.97,2 
DISL,ioos:station:DISL:PPTA:1,2015-01-02T17:30:00Z,30.2791,-87.5561,0.0,15.19,2 
DISL,ioos:station:DISL:PPTA:1,2015-01-02T18:00:00Z,30.2791,-87.5561,0.0,15.33,2 
DISL,ioos:station:DISL:PPTA:1,2015-01-02T18:30:00Z,30.2791,-87.5561,0.0,15.49,2 
DISL,ioos:station:DISL:PPTA:1,2015-01-02T19:00:00Z,30.2791,-87.5561,0.0,15.74,2 
DISL,ioos:station:DISL:PPTA:1,2015-01-02T19:30:00Z,30.2791,-87.5561,0.0,15.74,2 
DISL,ioos:station:DISL:PPTA:1,2015-01-02T20:00:00Z,30.2791,-87.5561,0.0,15.85,2 
DISL,ioos:station:DISL:PPTA:1,2015-01-02T20:30:00Z,30.2791,-87.5561,0.0,15.86,2 
DISL,ioos:station:DISL:PPTA:1,2015-01-02T21:00:00Z,30.2791,-87.5561,0.0,15.91,2 
DISL,ioos:station:DISL:PPTA:1,2015-01-02T21:30:00Z,30.2791,-87.5561,0.0,15.87,2 
DISL,ioos:station:DISL:PPTA:1,2015-01-02T22:00:00Z,30.2791,-87.5561,0.0,16.0,2 
DISL,ioos:station:DISL:PPTA:1,2015-01-02T22:30:00Z,30.2791,-87.5561,0.0,15.93,2 
DISL,ioos:station:DISL:PPTA:1,2015-01-02T23:00:00Z,30.2791,-87.5561,0.0,15.99,2 
DISL,ioos:station:DISL:PPTA:1,2015-01-02T23:30:00Z,30.2791,-87.5561,0.0,16.02,2 
DISL,ioos:station:DISL:PPTA:1,2015-01-03T00:00:00Z,30.2791,-87.5561,0.0,16.02,2 
DISL,ioos:station:DISL:PPTA:1,2015-01-03T00:30:00Z,30.2791,-87.5561,0.0,16.01,2 
DISL,ioos:station:DISL:PPTA:1,2015-01-03T01:00:00Z,30.2791,-87.5561,0.0,16.01,2 
DISL,ioos:station:DISL:PPTA:1,2015-01-03T01:30:00Z,30.2791,-87.5561,0.0,15.99,2 
DISL,ioos:station:DISL:PPTA:1,2015-01-03T02:00:00Z,30.2791,-87.5561,0.0,16.04,2 
DISL,ioos:station:DISL:PPTA:1,2015-01-03T02:30:00Z,30.2791,-87.5561,0.0,16.02,2 
DISL,ioos:station:DISL:PPTA:1,2015-01-03T03:00:00Z,30.2791,-87.5561,0.0,16.04,2 
DISL,ioos:station:DISL:PPTA:1,2015-01-03T03:30:00Z,30.2791,-87.5561,0.0,15.98,2 
DISL,ioos:station:DISL:PPTA:1,2015-01-03T04:00:00Z,30.2791,-87.5561,0.0,15.98,2 
DISL,ioos:station:DISL:PPTA:1,2015-01-03T04:30:00Z,30.2791,-87.5561,0.0,16.0,2 
DISL,ioos:station:DISL:PPTA:1,2015-01-03T05:00:00Z,30.2791,-87.5561,0.0,15.95,2 
DISL,ioos:station:DISL:PPTA:1,2015-01-03T05:30:00Z,30.2791,-87.5561,0.0,16.0,2 
DISL,ioos:station:DISL:PPTA:1,2015-01-03T06:00:00Z,30.2791,-87.5561,0.0,16.0,2 
DISL,ioos:station:DISL:PPTA:1,2015-01-03T06:30:00Z,30.2791,-87.5561,0.0,16.08,2 
DISL,ioos:station:DISL:PPTA:1,2015-01-03T07:00:00Z,30.2791,-87.5561,0.0,15.98,2 
DISL,ioos:station:DISL:PPTA:1,2015-01-03T07:30:00Z,30.2791,-87.5561,0.0,16.0,2 
DISL,ioos:station:DISL:PPTA:1,2015-01-03T08:00:00Z,30.2791,-87.5561,0.0,16.02,2 
DISL,ioos:station:DISL:PPTA:1,2015-01-03T08:30:00Z,30.2791,-87.5561,0.0,16.03,2 
DISL,ioos:station:DISL:PPTA:1,2015-01-03T09:00:00Z,30.2791,-87.5561,0.0,16.16,2 
DISL,ioos:station:DISL:PPTA:1,2015-01-03T09:30:00Z,30.2791,-87.5561,0.0,16.02,2 
DISL,ioos:station:DISL:PPTA:1,2015-01-03T10:00:00Z,30.2791,-87.5561,0.0,15.98,2 
DISL,ioos:station:DISL:PPTA:1,2015-01-03T10:30:00Z,30.2791,-87.5561,0.0,16.11,2 
DISL,ioos:station:DISL:PPTA:1,2015-01-03T11:00:00Z,30.2791,-87.5561,0.0,16.04,2 
DISL,ioos:station:DISL:PPTA:1,2015-01-03T11:30:00Z,30.2791,-87.5561,0.0,15.92,2 
DISL,ioos:station:DISL:PPTA:1,2015-01-03T12:00:00Z,30.2791,-87.5561,0.0,15.83,2 
DISL,ioos:station:DISL:PPTA:1,2015-01-03T12:30:00Z,30.2791,-87.5561,0.0,15.75,2 
DISL,ioos:station:DISL:PPTA:1,2015-01-03T13:00:00Z,30.2791,-87.5561,0.0,15.82,2 
DISL,ioos:station:DISL:PPTA:1,2015-01-03T13:30:00Z,30.2791,-87.5561,0.0,15.63,2 
DISL,ioos:station:DISL:PPTA:1,2015-01-03T14:00:00Z,30.2791,-87.5561,0.0,15.63,2 
DISL,ioos:station:DISL:PPTA:1,2015-01-03T14:30:00Z,30.2791,-87.5561,0.0,15.67,2 
DISL,ioos:station:DISL:PPTA:1,2015-01-03T15:00:00Z,30.2791,-87.5561,0.0,15.64,2 
DISL,ioos:station:DISL:PPTA:1,2015-01-03T15:30:00Z,30.2791,-87.5561,0.0,15.84,2 
DISL,ioos:station:DISL:PPTA:1,2015-01-03T16:00:00Z,30.2791,-87.5561,0.0,16.03,2 
DISL,ioos:station:DISL:PPTA:1,2015-01-03T16:30:00Z,30.2791,-87.5561,0.0,16.15,2 
DISL,ioos:station:DISL:PPTA:1,2015-01-03T17:00:00Z,30.2791,-87.5561,0.0,16.21,2 
DISL,ioos:station:DISL:PPTA:1,2015-01-03T17:30:00Z,30.2791,-87.5561,0.0,16.3,2 
DISL,ioos:station:DISL:PPTA:1,2015-01-03T18:00:00Z,30.2791,-87.5561,0.0,16.33,2 
DISL,ioos:station:DISL:PPTA:1,2015-01-03T18:30:00Z,30.2791,-87.5561,0.0,16.41,2 
DISL,ioos:station:DISL:PPTA:1,2015-01-03T19:00:00Z,30.2791,-87.5561,0.0,16.47,2 
DISL,ioos:station:DISL:PPTA:1,2015-01-03T19:30:00Z,30.2791,-87.5561,0.0,16.49,2 
DISL,ioos:station:DISL:PPTA:1,2015-01-03T20:00:00Z,30.2791,-87.5561,0.0,16.56,2 
DISL,ioos:station:DISL:PPTA:1,2015-01-03T20:30:00Z,30.2791,-87.5561,0.0,16.6,2 
DISL,ioos:station:DISL:PPTA:1,2015-01-03T21:00:00Z,30.2791,-87.5561,0.0,16.62,2 
DISL,ioos:station:DISL:PPTA:1,2015-01-03T21:30:00Z,30.2791,-87.5561,0.0,16.7,2 
DISL,ioos:station:DISL:PPTA:1,2015-01-03T22:00:00Z,30.2791,-87.5561,0.0,16.74,2 
DISL,ioos:station:DISL:PPTA:1,2015-01-03T22:30:00Z,30.2791,-87.5561,0.0,16.8,2 
DISL,ioos:station:DISL:PPTA:1,2015-01-03T23:00:00Z,30.2791,-87.5561,0.0,16.83,2 
DISL,ioos:station:DISL:PPTA:1,2015-01-03T23:30:00Z,30.2791,-87.5561,0.0,16.84,2 
DISL,ioos:station:DISL:PPTA:1,2015-01-04T00:00:00Z,30.2791,-87.5561,0.0,16.88,2 
DISL,ioos:station:DISL:PPTA:1,2015-01-04T00:30:00Z,30.2791,-87.5561,0.0,16.89,2 
DISL,ioos:station:DISL:PPTA:1,2015-01-04T01:00:00Z,30.2791,-87.5561,0.0,16.89,2 
DISL,ioos:station:DISL:PPTA:1,2015-01-04T01:30:00Z,30.2791,-87.5561,0.0,16.92,2 
DISL,ioos:station:DISL:PPTA:1,2015-01-04T02:00:00Z,30.2791,-87.5561,0.0,16.92,2 
DISL,ioos:station:DISL:PPTA:1,2015-01-04T02:30:00Z,30.2791,-87.5561,0.0,16.92,2 
DISL,ioos:station:DISL:PPTA:1,2015-01-04T03:00:00Z,30.2791,-87.5561,0.0,16.91,2 
DISL,ioos:station:DISL:PPTA:1,2015-01-04T03:30:00Z,30.2791,-87.5561,0.0,16.91,2 
DISL,ioos:station:DISL:PPTA:1,2015-01-04T04:00:00Z,30.2791,-87.5561,0.0,16.91,2 
DISL,ioos:station:DISL:PPTA:1,2015-01-04T04:30:00Z,30.2791,-87.5561,0.0,16.91,2 
DISL,ioos:station:DISL:PPTA:1,2015-01-04T05:00:00Z,30.2791,-87.5561,0.0,16.92,2 
DISL,ioos:station:DISL:PPTA:1,2015-01-04T05:30:00Z,30.2791,-87.5561,0.0,16.92,2 
DISL,ioos:station:DISL:PPTA:1,2015-01-04T06:00:00Z,30.2791,-87.5561,0.0,16.95,2 
DISL,ioos:station:DISL:PPTA:1,2015-01-04T06:30:00Z,30.2791,-87.5561,0.0,17.02,2 
DISL,ioos:station:DISL:PPTA:1,2015-01-04T07:00:00Z,30.2791,-87.5561,0.0,17.07,2 
DISL,ioos:station:DISL:PPTA:1,2015-01-04T07:30:00Z,30.2791,-87.5561,0.0,17.03,2 
DISL,ioos:station:DISL:PPTA:1,2015-01-04T08:00:00Z,30.2791,-87.5561,0.0,17.08,2 
DISL,ioos:station:DISL:PPTA:1,2015-01-04T08:30:00Z,30.2791,-87.5561,0.0,17.05,2 
DISL,ioos:station:DISL:PPTA:1,2015-01-04T09:00:00Z,30.2791,-87.5561,0.0,17.13,2 
DISL,ioos:station:DISL:PPTA:1,2015-01-04T09:30:00Z,30.2791,-87.5561,0.0,17.26,2 
DISL,ioos:station:DISL:PPTA:1,2015-01-04T10:00:00Z,30.2791,-87.5561,0.0,17.32,2 
DISL,ioos:station:DISL:PPTA:1,2015-01-04T10:30:00Z,30.2791,-87.5561,0.0,17.16,2 
DISL,ioos:station:DISL:PPTA:1,2015-01-04T15:00:00Z,30.2791,-87.5561,0.0,15.24,2 
DISL,ioos:station:DISL:PPTA:1,2015-01-04T15:30:00Z,30.2791,-87.5561,0.0,15.18,2 
DISL,ioos:station:DISL:PPTA:1,2015-01-04T16:00:00Z,30.2791,-87.5561,0.0,15.25,2 
DISL,ioos:station:DISL:PPTA:1,2015-01-04T16:30:00Z,30.2791,-87.5561,0.0,15.27,2 
DISL,ioos:station:DISL:PPTA:1,2015-01-04T17:00:00Z,30.2791,-87.5561,0.0,15.2,2 
DISL,ioos:station:DISL:PPTA:1,2015-01-04T17:30:00Z,30.2791,-87.5561,0.0,15.38,2 
DISL,ioos:station:DISL:PPTA:1,2015-01-04T18:00:00Z,30.2791,-87.5561,0.0,15.41,2 
DISL,ioos:station:DISL:PPTA:1,2015-01-04T18:30:00Z,30.2791,-87.5561,0.0,15.38,2 
DISL,ioos:station:DISL:PPTA:1,2015-01-04T19:00:00Z,30.2791,-87.5561,0.0,15.52,2 
DISL,ioos:station:DISL:PPTA:1,2015-01-04T19:30:00Z,30.2791,-87.5561,0.0,15.63,2 
DISL,ioos:station:DISL:PPTA:1,2015-01-04T20:00:00Z,30.2791,-87.5561,0.0,16.3,2 
DISL,ioos:station:DISL:PPTA:1,2015-01-04T20:30:00Z,30.2791,-87.5561,0.0,16.97,2 
DISL,ioos:station:DISL:PPTA:1,2015-01-04T21:00:00Z,30.2791,-87.5561,0.0,17.57,2 
DISL,ioos:station:DISL:PPTA:1,2015-01-04T21:30:00Z,30.2791,-87.5561,0.0,17.56,2 
DISL,ioos:station:DISL:PPTA:1,2015-01-04T22:00:00Z,30.2791,-87.5561,0.0,17.76,2 
DISL,ioos:station:DISL:PPTA:1,2015-01-04T22:30:00Z,30.2791,-87.5561,0.0,17.73,2 
DISL,ioos:station:DISL:PPTA:1,2015-01-04T23:00:00Z,30.2791,-87.5561,0.0,17.75,2 
DISL,ioos:station:DISL:PPTA:1,2015-01-04T23:30:00Z,30.2791,-87.5561,0.0,17.72,2 
DISL,ioos:station:DISL:PPTA:1,2015-01-06T00:00:00Z,30.2791,-87.5561,0.0,17.72,2 
DISL,ioos:station:DISL:PPTA:1,2015-01-06T00:30:00Z,30.2791,-87.5561,0.0,17.67,2 
DISL,ioos:station:DISL:PPTA:1,2015-01-06T01:00:00Z,30.2791,-87.5561,0.0,17.66,2 
DISL,ioos:station:DISL:PPTA:1,2015-01-06T01:30:00Z,30.2791,-87.5561,0.0,17.56,2 
DISL,ioos:station:DISL:PPTA:1,2015-01-06T02:00:00Z,30.2791,-87.5561,0.0,17.62,2 
DISL,ioos:station:DISL:PPTA:1,2015-01-06T02:30:00Z,30.2791,-87.5561,0.0,17.62,2 
DISL,ioos:station:DISL:PPTA:1,2015-01-06T03:00:00Z,30.2791,-87.5561,0.0,17.57,2 
DISL,ioos:station:DISL:PPTA:1,2015-01-06T03:30:00Z,30.2791,-87.5561,0.0,17.6,2 
DISL,ioos:station:DISL:PPTA:1,2015-01-06T04:00:00Z,30.2791,-87.5561,0.0,17.57,2 
DISL,ioos:station:DISL:PPTA:1,2015-01-06T04:30:00Z,30.2791,-87.5561,0.0,17.57,2 
DISL,ioos:station:DISL:PPTA:1,2015-01-06T05:00:00Z,30.2791,-87.5561,0.0,17.57,2 
DISL,ioos:station:DISL:PPTA:1,2015-01-06T05:30:00Z,30.2791,-87.5561,0.0,17.58,2 
DISL,ioos:station:DISL:PPTA:1,2015-01-06T06:00:00Z,30.2791,-87.5561,0.0,17.57,2 
DISL,ioos:station:DISL:PPTA:1,2015-01-06T06:30:00Z,30.2791,-87.5561,0.0,17.54,2 
DISL,ioos:station:DISL:PPTA:1,2015-01-06T07:00:00Z,30.2791,-87.5561,0.0,15.62,2 
DISL,ioos:station:DISL:PPTA:1,2015-01-06T07:30:00Z,30.2791,-87.5561,0.0,15.62,2 
DISL,ioos:station:DISL:PPTA:1,2015-01-06T15:00:00Z,30.2791,-87.5561,0.0,14.76,2 
DISL,ioos:station:DISL:PPTA:1,2015-01-06T15:30:00Z,30.2791,-87.5561,0.0,14.73,2 
DISL,ioos:station:DISL:PPTA:1,2015-01-06T16:00:00Z,30.2791,-87.5561,0.0,14.67,2 
DISL,ioos:station:DISL:PPTA:1,2015-01-06T16:30:00Z,30.2791,-87.5561,0.0,14.71,2 
DISL,ioos:station:DISL:PPTA:1,2015-01-06T17:00:00Z,30.2791,-87.5561,0.0,14.77,2 
DISL,ioos:station:DISL:PPTA:1,2015-01-06T17:30:00Z,30.2791,-87.5561,0.0,14.63,2 
DISL,ioos:station:DISL:PPTA:1,2015-01-06T18:00:00Z,30.2791,-87.5561,0.0,14.84,2 
DISL,ioos:station:DISL:PPTA:1,2015-01-06T18:30:00Z,30.2791,-87.5561,0.0,14.82,2 
DISL,ioos:station:DISL:PPTA:1,2015-01-06T19:00:00Z,30.2791,-87.5561,0.0,15.0,2 
DISL,ioos:station:DISL:PPTA:1,2015-01-06T19:30:00Z,30.2791,-87.5561,0.0,14.59,2 
DISL,ioos:station:DISL:PPTA:1,2015-01-06T20:00:00Z,30.2791,-87.5561,0.0,14.52,2 
DISL,ioos:station:DISL:PPTA:1,2015-01-06T20:30:00Z,30.2791,-87.5561,0.0,15.25,2 
DISL,ioos:station:DISL:PPTA:1,2015-01-06T21:00:00Z,30.2791,-87.5561,0.0,17.05,2 
DISL,ioos:station:DISL:PPTA:1,2015-01-06T21:30:00Z,30.2791,-87.5561,0.0,17.05,2 
DISL,ioos:station:DISL:PPTA:1,2015-01-06T22:00:00Z,30.2791,-87.5561,0.0,17.15,2 
DISL,ioos:station:DISL:PPTA:1,2015-01-06T22:30:00Z,30.2791,-87.5561,0.0,17.14,2 
DISL,ioos:station:DISL:PPTA:1,2015-01-06T23:00:00Z,30.2791,-87.5561,0.0,17.25,2 
DISL,ioos:station:DISL:PPTA:1,2015-01-06T23:30:00Z,30.2791,-87.5561,0.0,17.26,2 
DISL,ioos:station:DISL:PPTA:1,2015-01-07T00:00:00Z,30.2791,-87.5561,0.0,17.31,2 
DISL,ioos:station:DISL:PPTA:1,2015-01-07T00:30:00Z,30.2791,-87.5561,0.0,17.39,2 
DISL,ioos:station:DISL:PPTA:1,2015-01-07T01:00:00Z,30.2791,-87.5561,0.0,17.35,2 
DISL,ioos:station:DISL:PPTA:1,2015-01-07T01:30:00Z,30.2791,-87.5561,0.0,17.38,2 
DISL,ioos:station:DISL:PPTA:1,2015-01-07T02:00:00Z,30.2791,-87.5561,0.0,17.37,2 
DISL,ioos:station:DISL:PPTA:1,2015-01-07T02:30:00Z,30.2791,-87.5561,0.0,17.29,2 
DISL,ioos:station:DISL:PPTA:1,2015-01-07T03:00:00Z,30.2791,-87.5561,0.0,17.26,2 
DISL,ioos:station:DISL:PPTA:1,2015-01-07T03:30:00Z,30.2791,-87.5561,0.0,17.18,2 
DISL,ioos:station:DISL:PPTA:1,2015-01-07T04:00:00Z,30.2791,-87.5561,0.0,17.16,2 
DISL,ioos:station:DISL:PPTA:1,2015-01-07T04:30:00Z,30.2791,-87.5561,0.0,17.06,2 
DISL,ioos:station:DISL:PPTA:1,2015-01-07T05:00:00Z,30.2791,-87.5561,0.0,17.03,2 
DISL,ioos:station:DISL:PPTA:1,2015-01-07T17:30:00Z,30.2791,-87.5561,0.0,13.93,2 
DISL,ioos:station:DISL:PPTA:1,2015-01-07T18:00:00Z,30.2791,-87.5561,0.0,14.0,2 
DISL,ioos:station:DISL:PPTA:1,2015-01-07T18:30:00Z,30.2791,-87.5561,0.0,14.01,2 
DISL,ioos:station:DISL:PPTA:1,2015-01-07T19:00:00Z,30.2791,-87.5561,0.0,14.08,2 
DISL,ioos:station:DISL:PPTA:1,2015-01-07T19:30:00Z,30.2791,-87.5561,0.0,14.09,2 
DISL,ioos:station:DISL:PPTA:1,2015-01-07T20:00:00Z,30.2791,-87.5561,0.0,14.31,2 
DISL,ioos:station:DISL:PPTA:1,2015-01-07T20:30:00Z,30.2791,-87.5561,0.0,14.24,2 
DISL,ioos:station:DISL:PPTA:1,2015-01-07T21:00:00Z,30.2791,-87.5561,0.0,14.39,2 
DISL,ioos:station:DISL:PPTA:1,2015-01-07T21:30:00Z,30.2791,-87.5561,0.0,14.57,2 
DISL,ioos:station:DISL:PPTA:1,2015-01-07T22:00:00Z,30.2791,-87.5561,0.0,14.55,2 
DISL,ioos:station:DISL:PPTA:1,2015-01-07T22:30:00Z,30.2791,-87.5561,0.0,14.63,2 
DISL,ioos:station:DISL:PPTA:1,2015-01-07T23:00:00Z,30.2791,-87.5561,0.0,14.59,2 
DISL,ioos:station:DISL:PPTA:1,2015-01-07T23:30:00Z,30.2791,-87.5561,0.0,14.62,2 
DISL,ioos:station:DISL:PPTA:1,2015-01-14T00:00:00Z,30.2791,-87.5561,0.0,14.65,2 
DISL,ioos:station:DISL:PPTA:1,2015-01-14T00:30:00Z,30.2791,-87.5561,0.0,14.6,2 
DISL,ioos:station:DISL:PPTA:1,2015-01-14T01:00:00Z,30.2791,-87.5561,0.0,14.62,2 
DISL,ioos:station:DISL:PPTA:1,2015-01-14T01:30:00Z,30.2791,-87.5561,0.0,14.67,2 
DISL,ioos:station:DISL:PPTA:1,2015-01-14T02:00:00Z,30.2791,-87.5561,0.0,13.29,2 
DISL,ioos:station:DISL:PPTA:1,2015-01-14T02:30:00Z,30.2791,-87.5561,0.0,13.19,2 
DISL,ioos:station:DISL:PPTA:1,2015-01-14T03:00:00Z,30.2791,-87.5561,0.0,13.63,2 
DISL,ioos:station:DISL:PPTA:1,2015-01-14T03:30:00Z,30.2791,-87.5561,0.0,13.69,2 
DISL,ioos:station:DISL:PPTA:1,2015-01-14T04:00:00Z,30.2791,-87.5561,0.0,12.73,2 
DISL,ioos:station:DISL:PPTA:1,2015-01-14T04:30:00Z,30.2791,-87.5561,0.0,12.71,2 
DISL,ioos:station:DISL:PPTA:1,2015-01-14T05:00:00Z,30.2791,-87.5561,0.0,12.87,2 
DISL,ioos:station:DISL:PPTA:1,2015-01-14T05:30:00Z,30.2791,-87.5561,0.0,12.64,2 
DISL,ioos:station:DISL:PPTA:1,2015-01-14T06:00:00Z,30.2791,-87.5561,0.0,12.51,2 
DISL,ioos:station:DISL:PPTA:1,2015-01-14T06:30:00Z,30.2791,-87.5561,0.0,12.64,2 
DISL,ioos:station:DISL:PPTA:1,2015-01-14T07:00:00Z,30.2791,-87.5561,0.0,12.2,2 
DISL,ioos:station:DISL:PPTA:1,2015-01-14T07:30:00Z,30.2791,-87.5561,0.0,12.12,2 
DISL,ioos:station:DISL:PPTA:1,2015-01-14T08:00:00Z,30.2791,-87.5561,0.0,12.16,2 
DISL,ioos:station:DISL:PPTA:1,2015-01-14T08:30:00Z,30.2791,-87.5561,0.0,12.16,2 
DISL,ioos:station:DISL:PPTA:1,2015-01-14T09:00:00Z,30.2791,-87.5561,0.0,12.07,2 
DISL,ioos:station:DISL:PPTA:1,2015-01-14T09:30:00Z,30.2791,-87.5561,0.0,11.88,2 
DISL,ioos:station:DISL:PPTA:1,2015-01-14T10:00:00Z,30.2791,-87.5561,0.0,11.89,2 
DISL,ioos:station:DISL:PPTA:1,2015-01-14T10:30:00Z,30.2791,-87.5561,0.0,11.92,2 
DISL,ioos:station:DISL:PPTA:1,2015-01-14T11:00:00Z,30.2791,-87.5561,0.0,11.48,2 
DISL,ioos:station:DISL:PPTA:1,2015-01-14T11:30:00Z,30.2791,-87.5561,0.0,11.52,2 
DISL,ioos:station:DISL:PPTA:1,2015-01-14T12:00:00Z,30.2791,-87.5561,0.0,11.5,2 
DISL,ioos:station:DISL:PPTA:1,2015-01-14T12:30:00Z,30.2791,-87.5561,0.0,11.32,2 
DISL,ioos:station:DISL:PPTA:1,2015-01-14T13:00:00Z,30.2791,-87.5561,0.0,11.23,2 
DISL,ioos:station:DISL:PPTA:1,2015-01-14T13:30:00Z,30.2791,-87.5561,0.0,11.33,2 
DISL,ioos:station:DISL:PPTA:1,2015-01-14T14:00:00Z,30.2791,-87.5561,0.0,11.09,2 
DISL,ioos:station:DISL:PPTA:1,2015-01-14T14:30:00Z,30.2791,-87.5561,0.0,11.11,2 
DISL,ioos:station:DISL:PPTA:1,2015-01-14T15:00:00Z,30.2791,-87.5561,0.0,10.96,2 
DISL,ioos:station:DISL:PPTA:1,2015-01-14T15:30:00Z,30.2791,-87.5561,0.0,10.98,2 
DISL,ioos:station:DISL:PPTA:1,2015-01-14T16:00:00Z,30.2791,-87.5561,0.0,11.66,2 
DISL,ioos:station:DISL:PPTA:1,2015-01-14T16:30:00Z,30.2791,-87.5561,0.0,11.83,2 
DISL,ioos:station:DISL:PPTA:1,2015-01-14T17:00:00Z,30.2791,-87.5561,0.0,12.49,2 
DISL,ioos:station:DISL:PPTA:1,2015-01-14T17:30:00Z,30.2791,-87.5561,0.0,14.24,2 
DISL,ioos:station:DISL:PPTA:1,2015-01-14T18:00:00Z,30.2791,-87.5561,0.0,14.64,2 
DISL,ioos:station:DISL:PPTA:1,2015-01-14T18:30:00Z,30.2791,-87.5561,0.0,14.88,2 
DISL,ioos:station:DISL:PPTA:1,2015-01-14T19:00:00Z,30.2791,-87.5561,0.0,14.87,2 
DISL,ioos:station:DISL:PPTA:1,2015-01-14T19:30:00Z,30.2791,-87.5561,0.0,14.92,2 
DISL,ioos:station:DISL:PPTA:1,2015-01-14T20:00:00Z,30.2791,-87.5561,0.0,15.14,2 
DISL,ioos:station:DISL:PPTA:1,2015-01-14T20:30:00Z,30.2791,-87.5561,0.0,15.27,2 
DISL,ioos:station:DISL:PPTA:1,2015-01-14T21:00:00Z,30.2791,-87.5561,0.0,15.36,2 
DISL,ioos:station:DISL:PPTA:1,2015-01-14T21:30:00Z,30.2791,-87.5561,0.0,15.33,2 
DISL,ioos:station:DISL:PPTA:1,2015-01-14T22:00:00Z,30.2791,-87.5561,0.0,15.46,2 
DISL,ioos:station:DISL:PPTA:1,2015-01-14T22:30:00Z,30.2791,-87.5561,0.0,15.29,2 
DISL,ioos:station:DISL:PPTA:1,2015-01-14T23:00:00Z,30.2791,-87.5561,0.0,15.38,2 
DISL,ioos:station:DISL:PPTA:1,2015-01-14T23:30:00Z,30.2791,-87.5561,0.0,15.29,2 
DISL,ioos:station:DISL:PPTA:1,2015-01-15T00:00:00Z,30.2791,-87.5561,0.0,15.42,2 
DISL,ioos:station:DISL:PPTA:1,2015-01-15T00:30:00Z,30.2791,-87.5561,0.0,15.33,2 
DISL,ioos:station:DISL:PPTA:1,2015-01-15T01:00:00Z,30.2791,-87.5561,0.0,15.36,2 
DISL,ioos:station:DISL:PPTA:1,2015-01-15T01:30:00Z,30.2791,-87.5561,0.0,15.41,2 
DISL,ioos:station:DISL:PPTA:1,2015-01-15T02:00:00Z,30.2791,-87.5561,0.0,15.3,2 
DISL,ioos:station:DISL:PPTA:1,2015-01-15T02:30:00Z,30.2791,-87.5561,0.0,15.36,2 
DISL,ioos:station:DISL:PPTA:1,2015-01-15T03:00:00Z,30.2791,-87.5561,0.0,15.38,2 
DISL,ioos:station:DISL:PPTA:1,2015-01-15T03:30:00Z,30.2791,-87.5561,0.0,14.11,2 
DISL,ioos:station:DISL:PPTA:1,2015-01-15T04:00:00Z,30.2791,-87.5561,0.0,13.69,2 
DISL,ioos:station:DISL:PPTA:1,2015-01-15T04:30:00Z,30.2791,-87.5561,0.0,13.98,2 
DISL,ioos:station:DISL:PPTA:1,2015-01-15T05:00:00Z,30.2791,-87.5561,0.0,14.55,2 
DISL,ioos:station:DISL:PPTA:1,2015-01-15T05:30:00Z,30.2791,-87.5561,0.0,14.68,2 
DISL,ioos:station:DISL:PPTA:1,2015-01-15T06:00:00Z,30.2791,-87.5561,0.0,14.75,2 
DISL,ioos:station:DISL:PPTA:1,2015-01-15T06:30:00Z,30.2791,-87.5561,0.0,13.74,2 
DISL,ioos:station:DISL:PPTA:1,2015-01-15T07:00:00Z,30.2791,-87.5561,0.0,13.07,2 
DISL,ioos:station:DISL:PPTA:1,2015-01-15T07:30:00Z,30.2791,-87.5561,0.0,13.79,2 
DISL,ioos:station:DISL:PPTA:1,2015-01-15T08:00:00Z,30.2791,-87.5561,0.0,12.81,2 
DISL,ioos:station:DISL:PPTA:1,2015-01-15T08:30:00Z,30.2791,-87.5561,0.0,13.24,2 